Regional Weather Roundup
Issued by NWS Goodland, KS

Home | Current Version | Previous Version | Text Only | Print | Product List | Glossary Off
Versions: 1 2 3 4 5 6 7 8 9 10 11 12 13 14 15 16 17 18 19 20 21 22 23 24 25 26 27 28 29 30 31 32 33 34 35 36 37 38 39 40 41 42 43 44 45 46 47 48 49 50

000
ASUS43 KGLD 311008
RWRGLD

GOODLAND FORECAST AREA HOURLY WEATHER ROUNDUP
NATIONAL WEATHER SERVICE GOODLAND KS
300 AM MST SAT JAN 31 2015

...OFFICIAL OBSERVATIONS...

CITY           SKY/WX    TMP DP  RH WIND       PRES   REMARKS
GOODLAND KS    CLOUDY    34  33  96 S12       29.97F
HILL CITY KS   CLOUDY    34  32  92 S7        30.09F
IMPERIAL NEB   CLOUDY    34  32  92 SE7       29.99F
MCCOOK NEB     CLOUDY    34  32  92 SE5       30.04F
AKRON CO       CLOUDY    31  29  92 NW10      29.94F
BURLINGTON CO  CLOUDY    34  33  96 SW8       29.94F FOG
LIMON CO       CLOUDY    32  28  85 NW7       29.94F
$$

...UNOFFICIAL OBSERVATIONS...

CITY           SKY/WX    TMP DP  RH WIND       PRES   REMARKS
GOVE KS          N/A     34  32  92 MISG        N/A
SHARON SPRINGS   N/A     34  33  96 S13         N/A
KIT CARSON CO    N/A     34  31  90 MISG        N/A
YUMA CO          N/A     34  30  86 CALM        N/A
$$



USA.gov is the U.S. government's official web portal to all federal, state and local government web resources and services.